�������l�o���
Date,Time,MP-1(��Sv/h),MP-2(��Sv/h),MP-3(��Sv/h),MP-4(��Sv/h),MP-5(��Sv/h),MP-6(��Sv/h),MP-7(��Sv/h),MP-8(��Sv/h),����,����(m/s),���J
2018/08/24,00:00,0.862,1.272,0.899,1.602,1.173,0.476,0.844,0.795,��,12.4,��
2018/08/24,00:10,0.863,1.272,0.897,1.600,1.172,0.477,0.843,0.793,��,12.5,��
2018/08/24,00:20,0.864,1.271,0.896,1.602,1.172,0.477,0.843,0.793,��,11.9,��
2018/08/24,00:30,0.863,1.273,0.899,1.602,1.172,0.477,0.844,0.794,��,10.7,��
2018/08/24,00:40,0.863,1.272,0.898,1.600,1.173,0.477,0.844,0.795,��,10.9,��
2018/08/24,00:50,0.863,1.271,0.899,1.601,1.174,0.478,0.844,0.796,��,12.1,��
2018/08/24,01:00,0.864,1.273,0.899,1.601,1.171,0.478,0.843,0.794,��,13.1,��
2018/08/24,01:10,0.863,1.275,0.899,1.601,1.174,0.478,0.846,0.795,��,12.0,��
2018/08/24,01:20,0.861,1.275,0.898,1.603,1.175,0.478,0.845,0.796,��,12.7,�L
2018/08/24,01:30,0.864,1.275,0.899,1.600,1.171,0.478,0.843,0.795,��,12.0,�L
2018/08/24,01:40,0.865,1.274,0.897,1.602,1.173,0.478,0.844,0.794,��쓌,15.5,�L
2018/08/24,01:50,0.864,1.274,0.898,1.600,1.172,0.478,0.843,0.794,��,13.0,��
2018/08/24,02:00,0.866,1.273,0.900,1.600,1.173,0.477,0.843,0.796,��,13.1,��
2018/08/24,02:10,0.864,1.272,0.898,1.601,1.175,0.478,0.845,0.796,��,14.7,�L
2018/08/24,02:20,0.864,1.272,0.898,1.601,1.175,0.479,0.843,0.795,��,14.1,�L
2018/08/24,02:30,0.863,1.273,0.898,1.602,1.174,0.476,0.844,0.794,��,17.4,�L
2018/08/24,02:40,0.864,1.272,0.898,1.602,1.172,0.477,0.842,0.797,��,13.8,�L
2018/08/24,02:50,0.865,1.272,0.897,1.601,1.174,0.478,0.843,0.796,��,12.2,�L
2018/08/24,03:00,0.861,1.275,0.900,1.603,1.175,0.476,0.843,0.795,��,14.9,��
2018/08/24,03:10,0.862,1.273,0.896,1.603,1.176,0.478,0.844,0.796,��,14.9,��
2018/08/24,03:20,0.864,1.273,0.898,1.600,1.173,0.476,0.844,0.795,��,13.5,�L
2018/08/24,03:30,0.862,1.272,0.897,1.600,1.173,0.477,0.844,0.798,��,13.8,�L
2018/08/24,03:40,0.863,1.271,0.897,1.600,1.175,0.478,0.845,0.795,��,13.6,�L
2018/08/24,03:50,0.863,1.273,0.899,1.600,1.174,0.477,0.845,0.797,��,15.2,�L
2018/08/24,04:00,0.862,1.270,0.898,1.603,1.173,0.476,0.843,0.797,��쓌,15.5,�L
2018/08/24,04:10,0.864,1.268,0.896,1.599,1.171,0.476,0.844,0.794,��,14.4,�L
2018/08/24,04:20,0.863,1.268,0.897,1.599,1.169,0.477,0.843,0.797,��,13.3,�L
2018/08/24,04:30,0.863,1.265,0.895,1.598,1.169,0.476,0.843,0.794,��,16.1,�L
2018/08/24,04:40,0.863,1.268,0.896,1.601,1.166,0.478,0.845,0.795,��,13.0,�L
2018/08/24,04:50,0.864,1.267,0.893,1.598,1.166,0.475,0.842,0.796,��,13.8,�L
2018/08/24,05:00,0.863,1.264,0.891,1.597,1.161,0.475,0.844,0.797,��,11.6,�L
2018/08/24,05:10,0.862,1.254,0.890,1.593,1.152,0.474,0.839,0.794,��,12.7,�L
2018/08/24,05:20,0.857,1.244,0.885,1.590,1.143,0.476,0.839,0.791,��,15.2,�L
2018/08/24,05:30,0.856,1.243,0.885,1.586,1.146,0.474,0.839,0.788,��쓌,15.5,�L
2018/08/24,05:40,0.858,1.244,0.881,1.585,1.143,0.475,0.838,0.790,��,12.0,�L
2018/08/24,05:50,0.856,1.243,0.882,1.586,1.144,0.476,0.839,0.789,��,11.3,�L
2018/08/24,06:00,0.854,1.238,0.881,1.578,1.136,0.473,0.836,0.787,��,13.1,�L
2018/08/24,06:10,0.852,1.232,0.877,1.577,1.132,0.471,0.835,0.786,��,11.7,�L
2018/08/24,06:20,0.850,1.232,0.879,1.574,1.128,0.470,0.834,0.786,��,12.8,�L
2018/08/24,06:30,0.849,1.230,0.877,1.572,1.130,0.471,0.835,0.787,��,11.9,�L
2018/08/24,06:40,0.850,1.230,0.878,1.570,1.131,0.473,0.833,0.785,��,11.4,�L
2018/08/24,06:50,0.849,1.231,0.878,1.574,1.130,0.470,0.831,0.786,��,11.8,�L
2018/08/24,07:00,0.850,1.230,0.877,1.574,1.132,0.472,0.833,0.785,��,13.3,�L
2018/08/24,07:10,0.850,1.231,0.878,1.571,1.132,0.472,0.835,0.786,��쓌,11.7,�L
2018/08/24,07:20,0.851,1.233,0.878,1.575,1.131,0.472,0.834,0.785,��,11.0,�L
2018/08/24,07:30,0.850,1.232,0.877,1.573,1.133,0.471,0.831,0.784,��,12.0,�L
2018/08/24,07:40,0.851,1.234,0.879,1.572,1.131,0.472,0.833,0.784,��,10.0,�L
2018/08/24,07:50,0.852,1.235,0.879,1.571,1.131,0.473,0.835,0.786,��,11.1,�L
2018/08/24,08:00,0.853,1.237,0.879,1.574,1.132,0.473,0.837,0.787,��,10.9,�L
2018/08/24,08:10,0.851,1.239,0.878,1.577,1.134,0.472,0.834,0.785,��,10.9,�L
2018/08/24,08:20,0.851,1.236,0.881,1.576,1.134,0.474,0.834,0.787,��,10.7,�L
2018/08/24,08:30,0.851,1.234,0.878,1.577,1.134,0.473,0.835,0.787,��,10.2,�L
2018/08/24,08:40,0.853,1.235,0.880,1.575,1.134,0.472,0.836,0.786,��,8.9,�L
2018/08/24,08:50,0.852,1.233,0.879,1.573,1.132,0.473,0.833,0.787,��,10.0,�L
2018/08/24,09:00,0.851,1.235,0.879,1.573,1.130,0.473,0.836,0.787,��,9.4,�L
2018/08/24,09:10,0.852,1.231,0.879,1.575,1.133,0.472,0.835,0.785,��,9.2,�L
2018/08/24,09:20,0.852,1.232,0.879,1.576,1.134,0.473,0.835,0.786,��,12.0,�L
2018/08/24,09:30,0.851,1.233,0.882,1.578,1.136,0.472,0.835,0.786,��,10.3,�L
2018/08/24,09:40,0.853,1.235,0.880,1.574,1.136,0.473,0.834,0.786,��,9.7,�L
2018/08/24,09:50,0.852,1.236,0.883,1.574,1.136,0.471,0.835,0.787,��,11.7,�L
2018/08/24,10:00,0.852,1.236,0.883,1.577,1.136,0.473,0.838,0.788,��,11.3,�L
2018/08/24,10:10,0.853,1.236,0.882,1.575,1.137,0.473,0.836,0.786,��,13.8,�L
2018/08/24,10:20,0.852,1.239,0.879,1.573,1.136,0.474,0.836,0.787,��,14.9,��
2018/08/24,10:30,0.852,1.239,0.881,1.577,1.139,0.476,0.835,0.787,��,15.5,��
2018/08/24,10:40,0.854,1.237,0.883,1.578,1.139,0.474,0.836,0.784,��,13.0,��
2018/08/24,10:50,0.855,1.239,0.883,1.575,1.138,0.475,0.838,0.789,��쓌,13.0,��
2018/08/24,11:00,0.855,1.237,0.883,1.578,1.140,0.474,0.838,0.786,��,11.9,��
2018/08/24,11:10,0.856,1.242,0.881,1.579,1.139,0.474,0.839,0.788,��,7.4,��
2018/08/24,11:20,0.854,1.242,0.885,1.580,1.140,0.473,0.839,0.786,��,8.0,��
2018/08/24,11:30,0.854,1.238,0.885,1.579,1.141,0.475,0.836,0.787,��,6.3,��
2018/08/24,11:40,0.855,1.242,0.885,1.578,1.142,0.474,0.838,0.786,��,7.7,��
2018/08/24,11:50,0.854,1.242,0.883,1.580,1.144,0.476,0.839,0.787,��,8.2,��
2018/08/24,12:00,0.855,1.244,0.884,1.579,1.144,0.475,0.838,0.787,��,8.1,��
2018/08/24,12:10,0.855,1.243,0.885,1.578,1.144,0.477,0.838,0.787,��쓌,11.6,��
2018/08/24,12:20,0.855,1.247,0.886,1.577,1.146,0.475,0.840,0.788,��쓌,11.1,��
2018/08/24,12:30,0.855,1.248,0.887,1.577,1.143,0.477,0.839,0.786,��쓌,11.7,��
2018/08/24,12:40,0.855,1.245,0.885,1.578,1.145,0.478,0.840,0.787,��쓌,11.4,��
2018/08/24,12:50,0.858,1.243,0.887,1.578,1.142,0.479,0.838,0.787,��,11.8,��
2018/08/24,13:00,0.857,1.247,0.884,1.580,1.146,0.476,0.837,0.787,��,13.0,��
2018/08/24,13:10,0.854,1.248,0.884,1.581,1.147,0.478,0.838,0.788,��쓌,13.1,��
2018/08/24,13:20,0.857,1.247,0.885,1.583,1.146,0.476,0.838,0.786,��쓌,11.4,��
2018/08/24,13:30,0.855,1.242,0.886,1.579,1.147,0.477,0.838,0.787,��쓌,12.8,��
2018/08/24,13:40,0.857,1.243,0.885,1.579,1.148,0.480,0.836,0.787,��쓌,11.9,��
2018/08/24,13:50,0.858,1.245,0.887,1.580,1.146,0.476,0.837,0.788,��쓌,12.4,��
2018/08/24,14:00,0.855,1.245,0.886,1.580,1.147,0.478,0.838,0.787,��쓌,13.0,��
2018/08/24,14:10,0.856,1.245,0.885,1.582,1.146,0.476,0.837,0.788,��,12.5,��
2018/08/24,14:20,0.856,1.246,0.883,1.580,1.146,0.477,0.838,0.789,��,13.0,�L
2018/08/24,14:30,0.857,1.246,0.885,1.582,1.146,0.476,0.840,0.789,��,13.0,��
2018/08/24,14:40,0.860,1.249,0.885,1.582,1.147,0.475,0.840,0.790,��쓌,15.5,��
2018/08/24,14:50,0.856,1.247,0.888,1.579,1.147,0.477,0.840,0.789,��쓌,16.6,��
2018/08/24,15:00,0.857,1.248,0.887,1.581,1.147,0.476,0.838,0.787,��쓌,15.7,��
2018/08/24,15:10,0.859,1.248,0.884,1.585,1.147,0.477,0.841,0.788,��쓌,13.8,��
2018/08/24,15:20,0.858,1.247,0.884,1.579,1.148,0.475,0.840,0.787,��,13.9,��
2018/08/24,15:30,0.858,1.248,0.885,1.581,1.147,0.477,0.840,0.789,��,16.1,��
2018/08/24,15:40,0.858,1.249,0.883,1.582,1.150,0.477,0.841,0.790,��,13.3,��
2018/08/24,15:50,0.859,1.252,0.886,1.582,1.149,0.476,0.842,0.789,��,12.4,��
2018/08/24,16:00,0.860,1.248,0.886,1.583,1.148,0.476,0.841,0.790,��,11.6,��
2018/08/24,16:10,0.857,1.251,0.886,1.582,1.149,0.477,0.841,0.789,��,13.0,��
2018/08/24,16:20,0.859,1.250,0.888,1.583,1.148,0.477,0.841,0.791,��,12.5,��
2018/08/24,16:30,0.860,1.253,0.888,1.582,1.150,0.477,0.841,0.790,��,8.9,��
2018/08/24,16:40,0.859,1.250,0.886,1.583,1.147,0.479,0.844,0.791,��,6.6,��
2018/08/24,16:50,0.858,1.252,0.888,1.584,1.151,0.479,0.841,0.790,��,7.7,��
2018/08/24,17:00,0.859,1.253,0.889,1.583,1.150,0.479,0.841,0.790,��,8.9,��
2018/08/24,17:10,0.858,1.254,0.888,1.582,1.149,0.478,0.841,0.790,��,9.3,��
2018/08/24,17:20,0.858,1.256,0.889,1.583,1.148,0.478,0.841,0.792,��,10.2,��
2018/08/24,17:30,0.859,1.256,0.887,1.583,1.148,0.478,0.842,0.791,��,10.2,��
2018/08/24,17:40,0.857,1.253,0.891,1.585,1.151,0.479,0.841,0.793,��,10.8,��
2018/08/24,17:50,0.859,1.254,0.889,1.582,1.149,0.479,0.840,0.791,��,10.5,��
2018/08/24,18:00,0.859,1.254,0.890,1.586,1.150,0.478,0.841,0.793,��,11.0,��
2018/08/24,18:10,0.858,1.255,0.891,1.584,1.149,0.481,0.839,0.792,��,9.5,��
2018/08/24,18:20,0.860,1.256,0.889,1.587,1.150,0.478,0.840,0.790,��,9.1,��
2018/08/24,18:30,0.858,1.255,0.889,1.584,1.150,0.479,0.841,0.794,��,8.3,��
2018/08/24,18:40,0.859,1.252,0.888,1.585,1.150,0.480,0.841,0.792,��,7.4,��
2018/08/24,18:50,0.858,1.252,0.888,1.584,1.153,0.478,0.841,0.792,��,7.9,��
2018/08/24,19:00,0.859,1.257,0.890,1.583,1.149,0.479,0.839,0.791,��,7.9,��
2018/08/24,19:10,0.859,1.254,0.889,1.584,1.146,0.480,0.839,0.793,��,7.8,��
2018/08/24,19:20,0.859,1.255,0.889,1.582,1.152,0.480,0.842,0.792,��,8.1,��
2018/08/24,19:30,0.860,1.256,0.891,1.584,1.153,0.479,0.841,0.794,��쐼,9.0,��
2018/08/24,19:40,0.858,1.254,0.890,1.586,1.153,0.479,0.842,0.792,��쐼,7.3,��
2018/08/24,19:50,0.859,1.254,0.889,1.583,1.151,0.478,0.840,0.791,��,6.2,��
2018/08/24,20:00,0.859,1.255,0.889,1.584,1.153,0.479,0.842,0.792,��,5.2,��
2018/08/24,20:10,0.858,1.256,0.888,1.586,1.152,0.480,0.840,0.789,��쐼,5.9,��
2018/08/24,20:20,0.858,1.255,0.890,1.584,1.151,0.480,0.840,0.791,��쐼,6.2,��
2018/08/24,20:30,0.857,1.256,0.890,1.586,1.152,0.478,0.838,0.792,��쐼,6.6,��
2018/08/24,20:40,0.858,1.255,0.889,1.582,1.151,0.479,0.839,0.790,��쐼,6.7,��
2018/08/24,20:50,0.858,1.254,0.891,1.586,1.150,0.478,0.840,0.792,��,7.1,��
2018/08/24,21:00,0.861,1.252,0.892,1.585,1.154,0.477,0.841,0.791,��쐼,5.6,��
2018/08/24,21:10,0.859,1.254,0.889,1.583,1.149,0.479,0.841,0.792,��쐼,5.2,��
2018/08/24,21:20,0.860,1.254,0.890,1.584,1.152,0.479,0.840,0.791,�쐼,6.6,��
2018/08/24,21:30,0.860,1.254,0.890,1.587,1.151,0.481,0.841,0.791,�쐼,8.2,��
2018/08/24,21:40,0.858,1.256,0.889,1.588,1.153,0.480,0.842,0.792,�쐼,7.8,��
2018/08/24,21:50,0.860,1.255,0.889,1.587,1.155,0.480,0.841,0.793,��쐼,8.4,��
2018/08/24,22:00,0.858,1.255,0.891,1.584,1.153,0.480,0.842,0.791,�쐼,8.9,��
2018/08/24,22:10,0.860,1.254,0.891,1.587,1.153,0.480,0.843,0.792,�쐼,8.8,��
2018/08/24,22:20,0.859,1.256,0.889,1.585,1.152,0.480,0.844,0.793,�쐼,8.7,��
2018/08/24,22:30,0.860,1.253,0.888,1.585,1.153,0.481,0.842,0.792,�쐼,7.3,��
2018/08/24,22:40,0.859,1.256,0.890,1.585,1.152,0.481,0.842,0.792,��쐼,6.4,��
2018/08/24,22:50,0.859,1.254,0.888,1.585,1.153,0.481,0.841,0.792,��쐼,3.3,��
2018/08/24,23:00,0.859,1.253,0.891,1.584,1.153,0.480,0.841,0.792,��쓌,3.7,��
2018/08/24,23:10,0.861,1.254,0.890,1.583,1.153,0.480,0.840,0.791,�쓌,5.0,��
2018/08/24,23:20,0.862,1.257,0.890,1.585,1.154,0.480,0.841,0.792,��쓌,4.2,��
2018/08/24,23:30,0.858,1.258,0.891,1.584,1.154,0.480,0.841,0.793,��쓌,5.9,��
2018/08/24,23:40,0.858,1.258,0.891,1.585,1.152,0.482,0.841,0.792,��쐼,4.8,��
2018/08/24,23:50,0.860,1.255,0.888,1.584,1.153,0.480,0.840,0.793,��,2.9,��
